VNREDSAT 1

Last updated on Thu Nov 21 2024 00:02:27 GMT+0000 (Coordinated Universal Time)

1 39160U 13021B 24325.57823496 .00001357 00000+0 26603-3 0 9991 2 39160 97.9792 27.6862 0001446 99.9053 260.2314 14.64293999616316
UTC large
Height (km)
Speed (km/s)
/
Latitude / Longitude
Inclination (degrees)
Orbital Period (minutes)
Azimuth
Elevation
Range (km)
Doppler Factor

Next 0 passes for location: London (51.5072 / 0.1276)

Sorry there are no passes over London.